{"data":{"norad_id":56153,"epoch":"2026-09-21T13:32:55.015296Z","epoch_age_seconds":95168,"freshness":"FRESH","line1":"1 56153U 23047A   26264.56452564  .00002110  00000+0  11888-3 0  9995","line2":"2 56153  97.5018  90.3246 0001629  85.8218 274.3200 15.14292163192381","mean_motion":15.14292163,"eccentricity":0.0001629,"inclination_deg":97.5018,"raan_deg":90.3246,"arg_perigee_deg":85.8218,"mean_anomaly_deg":274.32,"bstar":0.00011888,"rev_number":19238,"period_min":95.093934657047,"perigee_km":522.00411351539,"apogee_km":524.25254575978,"semimajor_km":6901.2653296376,"source":"CELESTRAK","updated_at":"2026-09-22T09:00:25.701857Z"}}